HST
1 20580U 90037B   24146.36646801  .00006185  00000-0  29110-3 0  9991
2 20580  28.4666 137.9939 0002739 144.8429 215.2345 15.17462418673561
ISS (ZARYA)
1 25544U 98067A   24147.31178333  .00009588  00000-0  17286-3 0  9994
2 25544  51.6408  63.7429 0004739 238.7027 268.0195 15.50474033455152
CXO
1 25867U 99040B   24149.35049423  .00000720  00000-0  00000-0 0  9999
2 25867  40.6804 155.7827 8908050 295.0223 359.9343  0.37806773 14484